Weather Roundup
Issued by NWS Chicago, IL

Home | Current Version | Previous Version | Text Only | Print | Product List | Glossary On
Versions: 1 2 3 4 5 6 7 8 9 10 11 12 13 14 15 16 17 18 19 20 21 22 23 24 25 26 27 28 29 30 31 32 33 34 35 36 37 38 39 40 41 42 43 44 45 46 47 48 49 50
000
NZUS59 KLOT 131808
HRRLOT

CHICAGO AREA WEATHER ROUNDUP
NATIONAL WEATHER SERVICE CHICAGO/ROMEOVILLE IL
1200 PM CST SAT FEB 13 2016

NOTE: "FAIR" INDICATES FEW OR NO CLOUDS BELOW 12,000 FEET WITH NO
SIGNIFICANT WEATHER AND/OR OBSTRUCTIONS TO VISIBILITY.

* THESE STATIONS ARE NOT UNDER NWS QUALITY CONTROL. THEY ALSO MAY NOT
  REPORT WEATHER SUCH AS PRECIPITATION OR FOG.

ILZ005-006-012>014-019>023-131900-
NORTHEAST ILLINOIS

CITY           SKY/WX    TMP DP  RH WIND       PRES   REMARKS
OHARE          MOSUNNY   13  -7  40 NW9       30.58F WCI   1
6HR MIN TEMP:   2; 6HR MAX TEMP:  13;

MIDWAY         MOSUNNY   14  -9  35 VRB7G17   30.59F WCI   4
6HR MIN TEMP:   4; 6HR MAX TEMP:  14;

AURORA         SUNNY     14  -4  44 NW9       30.60F WCI   2
6HR MIN TEMP:   2; 6HR MAX TEMP:  14;

LANSING*       SUNNY     15  -9  34 NW10      30.58F WCI   2
JOLIET*        SUNNY     16  -5  40 W9        30.60F WCI   4
WAUKEGAN       SUNNY     11  -6  46 NW8       30.56F WCI  -1
6HR MIN TEMP:   0; 6HR MAX TEMP:  11;

DUPAGE AIRPORT SUNNY     11  -6  46 W8        30.58F WCI  -1
6HR MIN TEMP:   2; 6HR MAX TEMP:  12;

WHEELING       SUNNY     12  -6  44 NW10      30.60S WCI  -1
6HR MIN TEMP:   2; 6HR MAX TEMP:  13;

KANKAKEE*      SUNNY     15  -6  38 NW8       30.60F WCI   4
MORRIS*        SUNNY     14  -6  41 NW6G18    30.57F WCI   5
LEWIS AIRPORT* SUNNY     13  -7  40 NW9       30.59F WCI   1
$$

WIZ051-052-058>065-066-070>072-131900-
SOUTHEAST WISCONSIN

CITY           SKY/WX    TMP DP  RH WIND       PRES   REMARKS
MILWAUKEE      MOSUNNY   10  -9  42 NW13      30.56F WCI  -5
6HR MIN TEMP:   0; 6HR MAX TEMP:  10;

KENOSHA*       SUNNY     10  -6  48 W13       30.57S WCI  -5
RACINE*        SUNNY     10  -8  44 W14       30.58S WCI  -6
BURLINGTON     SUNNY      8  -9  45 NW8       30.57F WCI  -4
WAUKESHA       SUNNY      3  -9  55 NW14      30.56F WCI -15
WEST BEND      SUNNY      7  -8  51 NW10      30.54F WCI  -8
$$

INZ001>003-010>013-019-020-131900-
NORTHWEST INDIANA

CITY           SKY/WX    TMP DP  RH WIND       PRES   REMARKS
GARY*          MOSUNNY   16 -13  27 W14       30.60S WCI   1
MICHIGAN CITY* NOT AVBL
RENSSELAER*    NOT AVBL
VALPARAISO     MOSUNNY   13  -2  51 N10G17    30.56S WCI   0
$$

LMZ740>746-131900-
SOUTHERN LAKE MICHIGAN

STATION/POSITION TIME  SKY/WX   TEMP WIND        PRES    VSBY
                                AIR  DIR/SP/G
                 (UTC)          (F)  (DEG/KT/KT) (MB)    (MI)
HARRISON CRIB    1700            10  310/ 10/ 12   N/A
BURNHAM HARBOR   1800            14  270/  9/ 11   N/A
CALUMET HARBOR   1700            12  260/  7/ 10 1035.1S
BURNS HARBOR     1700            11  330/  8/ 16 1035.9R
MICHIGAN CITY    1700            12  280/ 17/ 19   N/A
$$

ABBREVIATIONS USED IN REMARKS
   TC - TEMPERATURE IN CELSIUS
  WCI - WIND CHILL INDEX
   HX - HEAT INDEX
  VSB - VISIBILITY
$$



USA.gov is the U.S. government's official web portal to all federal, state and local government web resources and services.